Погода в Великом Боре

Беларусь     52°02′02″N   29°56′04″E
темп.,
°C
ветер,
м/с
пор.,
м/с
влажн.,
%
обл.,
%
осадки,
мм/ч
давл.,
гПа
погр.,
м
18 сентября, сб
сб1800:00+10всв51190100 0.0 1009391
03:00+11в61293100 0.1 1007450
06:00+11в51295100 0.9 1005407
09:00+11в61297100 5.6 1004421
12:00+11в51298100 0.4 1004462
15:00+12в51098100 0.6 1003383
18:00+11юз4997100 0.1 1004470
21:00+10зюз51095100 0.1 1005569
19 сентября, вс
вс1900:00+10юз4890100 0.0 1006501
03:00+9юз379176 0.0 1007417
06:00+7ююз249695 0.0 100793
09:00+9ю2384100 0.0 1007245
12:00+10ю2588100 0.2 1008472
15:00+9ююз2495100 1.3 1008291
18:00+9ююз2496100 1.1 1008320
21:00+8ююз1397100 2.8 1008190
20 сентября, пн
пн2000:00+8зюз1497100 1.4 1008220
03:00+7зсз2497100 1.8 1007217
06:00+7з2497100 0.9 1007221
09:00+8зсз2598100 1.7 1007302
12:00+8ссз4797100 1.1 1007531
15:00+8ссз4997100 3.0 1008556
18:00+8ссз4896100 0.8 1009648
21:00+7ссз4796100 1.0 1011549
21 сентября, вт
вт2100:00+6сз4796100 0.4 1012572
03:00+6сз4796100 1.9 1012585
06:00+5сз4796100 1.3 1013804
09:00+4сз4897100 2.6 1014765
12:00+4сз5897100 0.3 1015795
15:00+4сз5997100 0.6 1016836
18:00+4сз51097100 0.3 1017872
21:00+4сз51097100 0.5 1018893
22 сентября, ср
ср2200:00+4сз5996100 0.1 1018869
03:00+4сз4894100 0.1 1018915
06:00+4сз4996100 0.1 1018864
09:00+5сз4896100 0.1 1018888
12:00+6сз4792100 0.1 1018858
15:00+7сз4885100 0.3 1017940
18:00+6сз4993100 0.4 1018985
21:00+6сз3893100 0.6 1017892